Location: ??????
(55.6500°N, 37.8000°E)
Time: 05:33:29
(UTC+00:00)

BlueWalker 3 - Pass Details

Date: 14 April 2024
Orbit: 481 x 494 km, 53.2° (Epoch: 23 May)

Event Time Altitude Azimuth Distance (km) Brightness Sun altitude
Exits shadow 00:26:09 30° 241° (WSW) 929 2.7 -15.2°
Maximum altitude 00:27:16 37° 203° (SSW) 797 2.4 -15.1°
Drops below altitude 10° 00:30:50 10° 136° (SE) 1,698 4.6 -14.7°
Sets 00:33:06 0° 128° (SE) 2,577 5.7 -14.5°
